Location: Unnamed
(51.5169°N, 0.1311°W)
Time: 20:15:34
(UTC+01:00)

Tiros 1 - Pass Details

Date: 08 August 2024
Orbit: 623 x 655 km, 48.4° (Epoch: 16 September)

Event Time Altitude Azimuth Distance (km) Brightness Sun altitude
Rises 10:25:25 0° 268° (W) 2,979 10.2 42.2°
Reaches altitude 10° 10:27:48 10° 265° (W) 2,064 9.5 42.5°
Maximum altitude 10:32:29 58° 187° (S) 761 8.5 43.1°
Drops below altitude 10° 10:37:07 10° 109° (ESE) 2,047 10.7 43.7°
Sets 10:39:28 0° 105° (ESE) 2,951 11.2 44.0°
